| time (UTC) | temp C | wind direction | speed KPH | gust KPH | rain 1hr cm | rain 24hr cm | rain mn cm | humidity % | barometer mb |
| 20260504081601 | 12 | 213 | 0.0 | 4.8 | 0.00 | 0.00 | 0.00 | 75 | 1005.5 |
| 20260504070106 | 12 | 0 | 0.0 | 0.0 | 0.00 | 0.00 | 0.00 | 74 | 1005.9 |
| 20260504044604 | 15 | 0 | 0.0 | 0.0 | 0.00 | 0.00 | 0.00 | 68 | 1007.1 |
| 20260504043059 | 15 | 0 | 0.0 | 0.0 | 0.00 | 0.00 | 0.00 | 67 | 1007.3 |
| 20260504041556 | 15 | 0 | 0.0 | 3.2 | 0.00 | 0.00 | 0.00 | 67 | 1007.3 |
| 20260504040057 | 15 | 0 | 0.0 | 1.6 | 0.00 | 0.00 | 0.00 | 67 | 1007.4 |
| 20260504034614 | 15 | 0 | 0.0 | 3.2 | 0.00 | 0.00 | 0.00 | 65 | 1007.5 |
| 20260504033057 | 16 | 0 | 0.0 | 1.6 | 0.00 | 0.00 | 0.00 | 66 | 1007.6 |
| 20260504031559 | 16 | 0 | 0.0 | 0.0 | 0.00 | 0.00 | 0.00 | 65 | 1007.6 |
| 20260504030058 | 16 | 0 | 0.0 | 8.0 | 0.00 | 0.00 | 0.00 | 64 | 1007.6 |
| 20260504024558 | 16 | 0 | 0.0 | 3.2 | 0.00 | 0.00 | 0.00 | 64 | 1007.5 |
| 20260504023100 | 16 | 178 | 0.0 | 4.8 | 0.00 | 0.00 | 0.00 | 63 | 1007.5 |
| 20260504021559 | 16 | 0 | 0.0 | 3.2 | 0.00 | 0.00 | 0.00 | 63 | 1007.4 |
| 20260504020100 | 16 | 202 | 0.0 | 8.0 | 0.00 | 0.00 | 0.00 | 62 | 1007.5 |
| 20260504014619 | 17 | 186 | 0.0 | 3.2 | 0.00 | 0.00 | 0.00 | 60 | 1007.5 |
| 20260504013104 | 17 | 204 | 0.0 | 6.4 | 0.00 | 0.00 | 0.00 | 60 | 1007.4 |
| 20260504011605 | 17 | 0 | 0.0 | 6.4 | 0.00 | 0.00 | 0.00 | 60 | 1007.2 |
| 20260504010101 | 17 | 237 | 0.0 | 8.0 | 0.00 | 0.00 | 0.00 | 59 | 1007.1 |
| 20260504004604 | 18 | 0 | 0.0 | 8.0 | 0.00 | 0.00 | 0.00 | 58 | 1007.1 |
| 20260504003107 | 18 | 0 | 0.0 | 8.0 | 0.00 | 0.00 | 0.00 | 57 | 1007.1 |
| 20260504001613 | 18 | 0 | 0.0 | 6.4 | 0.00 | 0.00 | 0.00 | 58 | 1007.1 |
| 20260504000059 | 18 | 0 | 1.6 | 9.7 | 0.00 | 0.00 | 0.00 | 56 | 1007.2 |
| 20260503234557 | 19 | 215 | 1.6 | 11.3 | 0.00 | 0.00 | 0.00 | 54 | 1007.3 |
| 20260503233102 | 19 | 238 | 1.6 | 12.9 | 0.00 | 0.00 | 0.00 | 56 | 1007.3 |
| 20260503231558 | 19 | 217 | 3.2 | 11.3 | 0.00 | 0.00 | 0.00 | 54 | 1007.2 |
| 20260503230100 | 19 | 209 | 3.2 | 12.9 | 0.00 | 0.00 | 0.00 | 53 | 1007.2 |
| 20260503224600 | 19 | 205 | 4.8 | 20.9 | 0.00 | 0.00 | 0.00 | 51 | 1007.4 |
| 20260503223100 | 19 | 215 | 3.2 | 22.5 | 0.00 | 0.00 | 0.00 | 50 | 1007.4 |
| 20260503221559 | 19 | 199 | 4.8 | 14.5 | 0.00 | 0.00 | 0.00 | 51 | 1007.6 |
| 20260503214559 | 18 | 256 | 6.4 | 22.5 | 0.00 | 0.00 | 0.00 | 50 | 1007.7 |
| 20260503213111 | 19 | 277 | 4.8 | 17.7 | 0.00 | 0.00 | 0.00 | 50 | 1007.8 |
| 20260503211600 | 18 | 260 | 6.4 | 20.9 | 0.00 | 0.00 | 0.00 | 50 | 1007.9 |
| 20260503210105 | 18 | 234 | 4.8 | 22.5 | 0.00 | 0.00 | 0.00 | 48 | 1007.9 |
| 20260503204559 | 18 | 229 | 9.7 | 25.7 | 0.00 | 0.00 | 0.00 | 47 | 1008.0 |
| 20260503203104 | 19 | 244 | 6.4 | 17.7 | 0.00 | 0.00 | 0.00 | 46 | 1008.1 |
| 20260503201558 | 18 | 236 | 8.0 | 32.2 | 0.00 | 0.00 | 0.00 | 46 | 1008.5 |
| 20260503200104 | 19 | 173 | 4.8 | 22.5 | 0.00 | 0.00 | 0.00 | 45 | 1008.5 |
| 20260503194600 | 20 | 196 | 6.4 | 25.7 | 0.00 | 0.00 | 0.00 | 45 | 1008.7 |
| 20260503193111 | 20 | 346 | 6.4 | 35.4 | 0.00 | 0.00 | 0.00 | 45 | 1008.7 |
| 20260503191607 | 19 | 176 | 6.4 | 29.0 | 0.00 | 0.00 | 0.00 | 43 | 1008.9 |
| 20260503190059 | 19 | 211 | 8.0 | 25.7 | 0.00 | 0.00 | 0.00 | 43 | 1008.9 |
| 20260503184610 | 17 | 13 | 8.0 | 29.0 | 0.00 | 0.00 | 0.00 | 46 | 1009.2 |
| 20260503183111 | 17 | 246 | 4.8 | 20.9 | 0.00 | 0.00 | 0.00 | 50 | 1009.6 |
| 20260503181610 | 17 | 200 | 9.7 | 25.7 | 0.00 | 0.00 | 0.00 | 46 | 1009.7 |
| 20260503180100 | 17 | 277 | 8.0 | 25.7 | 0.00 | 0.00 | 0.00 | 48 | 1009.8 |
| 20260503174600 | 16 | 153 | 11.3 | 27.4 | 0.00 | 0.00 | 0.00 | 50 | 1010.4 |
| 20260503173102 | 16 | 150 | 4.8 | 19.3 | 0.00 | 0.00 | 0.00 | 51 | 1011.0 |
| 20260503171601 | 15 | 211 | 3.2 | 19.3 | 0.00 | 0.00 | 0.00 | 54 | 1011.3 |